Starlink 30809

operational
NORAD ID: 58183 Int'l Des: 2023-167 Owner: SPXS Country: US Constellation: starlink
LEOCIRCULAR

About Starlink 30809

Description loading...

Live Position

Loading 3D Globe...

Upcoming Passes

Altitude History

Altitude vs Time

uPlot chart will show altitude changes over time

Two-Line Element Set

1 58183U 23167J 25302.80996481 .00000440 00000-0 47646-4 0 9990
2 58183 43.0048 137.4294 0001011 264.4188 95.6539 15.02539231111261
Epoch: Oct 29, 2025 • Age: 25 hours

Current Status

Altitude 560.3 km
Velocity 7.58 km/s
Sub-Earth Point -9.06°S, 128.83°E
Launch Date Oct 30, 2023
Age 1.9 years
Type internet

Technical Details

Classification Payload
Mass 730.00 kg
Dry Mass 700.00 kg
Total Mass 730.00 kg
Length 0.30 m
Diameter 4.10 m
Span 29.00 m
Shape Box + pan
Manufacturer SPXS
Bus Type Starlink V2M
Phase Status In Orbit
Owner/State SPXS/US

Large Constellations

Loading constellations...